Retour au catalogue

COSMOS 374 DEB

ActifUNKNOWN
NORAD 5076·DEBRIS·🇷🇺 Russia

Lancé Oct 23, 1970 depuis Baikonur Cosmodrome

Loading…

Prochains Passages (prochaines 24 heures)

TLE

FraisSource: Space-Track

Époque: Sep 14, 2026, 00:59 UTC

1 05076U 70089AP  26257.04144720  .00000068  00000-0  77248-4 0  9992
2 05076  62.8042 278.3567 0965151 218.9169 133.8405 12.87512911607131

Suivez COSMOS 374 DEB en temps réel avec AllMySat

Download on the App Store